This is the latest recevied weather packets stored in our database for station/object EA6AMR-10. If no packets are shown the sender has not sent any weather packets the latest 10 day(s).
| Time | Temp. | Humidity | Pressure | Rain* | Wind** | Luminosity | Snow |
|---|---|---|---|---|---|---|---|
| 1777121958 | 28.89° C | 42% | 1018.3 hPa | - | - | - | - |
| 1777121058 | 30° C | 41% | 1018.2 hPa | - | - | - | - |
| 1777120158 | 30.56° C | 41% | 1018.2 hPa | - | - | - | - |
| 1777119257 | 30° C | 41% | 1018.4 hPa | - | - | - | - |
| 1777118357 | 30° C | 41% | 1018.3 hPa | - | - | - | - |
| 1777117457 | 30° C | 42% | 1018.4 hPa | - | - | - | - |
| 1777116557 | 30° C | 41% | 1018.5 hPa | - | - | - | - |
| 1777115657 | 29.44° C | 41% | 1018.5 hPa | - | - | - | - |
| 1777114757 | 30° C | 41% | 1018.6 hPa | - | - | - | - |
| 1777113856 | 30.56° C | 40% | 1018.6 hPa | - | - | - | - |
| 1777112956 | 30° C | 41% | 1018.7 hPa | - | - | - | - |
| 1777112056 | 28.33° C | 41% | 1018.7 hPa | - | - | - | - |
| 1777111156 | 27.78° C | 41% | 1018.7 hPa | - | - | - | - |
| 1777110255 | 27.22° C | 41% | 1018.8 hPa | - | - | - | - |
| 1777109355 | 27.22° C | 41% | 1018.8 hPa | - | - | - | - |
| 1777108455 | 26.67° C | 41% | 1018.8 hPa | - | - | - | - |
| 1777107555 | 25.56° C | 42% | 1018.8 hPa | - | - | - | - |
| 1777106654 | 24.44° C | 42% | 1018.8 hPa | - | - | - | - |
| 1777105759 | 23.89° C | 42% | 1018.9 hPa | - | - | - | - |
| 1777104859 | 23.33° C | 42% | 1018.9 hPa | - | - | - | - |
| 1777103958 | 22.78° C | 42% | 1018.8 hPa | - | - | - | - |
| 1777103058 | 22.22° C | 42% | 1018.7 hPa | - | - | - | - |
| 1777102158 | 21.67° C | 42% | 1018.8 hPa | - | - | - | - |
| 1777101258 | 21.67° C | 41% | 1018.8 hPa | - | - | - | - |
| 1777100358 | 21.11° C | 41% | 1018.8 hPa | - | - | - | - |
* Rain since midnight (hover to see other rain measurements)
** Current wind speed in m/s (hover to see current wind gust speed)